View from above orbital plane
|
View from above satellite
|
Ground track
|
The orbit data is extracted from the following two-line orbital elements,
1 43131U 18004W 21023.48680801 .00002222 00000-0 88204-4 0 9992
2 43131 97.4275 100.3352 0008606 6.0118 354.1222 15.26381235168648
Epoch (UTC): | 23 January 2021 11:41:00 |
Eccentricity: | 0.0008606 |
inclination: | 97.4275° |
perigee height: | 481 km |
apogee height: | 492 km |
right ascension of ascending node: | 100.3352° |
argument of perigee: | 6.0118° |
revolutions per day: | 15.26381235 |
mean anomaly at epoch: | 354.1222° |
orbit number at epoch: | 16864 |
The dashed part of the orbit path shows where the satellite is in the earth's shadow,
|
|